Погода в Ёнхоре

Россия / Республика Бурятия     50°31′03″N   105°49′57″E
темп.,
°C
ветер,
м/с
пор.,
м/с
влажн.,
%
обл.,
%
осадки,
мм/ч
давл.,
гПа
погр.,
м
18 мая, ср
ср1823:00+14зсз11455 0.0 101211
02:00+12з32515 0.0 101318
05:00+10з22635 0.0 101412
08:00+16з23525 0.0 1014295
11:00+21зсз33336 0.0 10132023
14:00+23ссв442858 0.0 10112582
17:00+24с342755 0.0 10112555
20:00+20всв22342 0.0 101116
19 мая, чт
чт1923:00+16ююв11402 0.0 101311
02:00+15зюз11445 0.0 101411
05:00+13з11494 0.0 101510
08:00+18зюз12395 0.0 1015277
11:00+24юз34275 0.0 10121450
14:00+27юз351927 0.0 10103257
17:00+28з031766 0.0 10073532
20:00+20ююз344276 0.1 1009115
20 мая, пт
пт2023:00+18зюз2247100 0.1 101014
02:00+16зсз114779 0.1 100911
05:00+15з225177 0.0 100911
08:00+19з11405 0.0 1009256
11:00+25сз122811 0.0 10071075
14:00+29св351862 0.0 10053115
17:00+29св4517100 0.0 10043324
20:00+24всв242538 0.0 100675
21 мая, сб
сб2123:00+18зюз22445 0.0 100819
02:00+17з11435 0.0 100811
05:00+14сз22485 0.0 101014
08:00+17с235310 0.0 1010428
11:00+21ссв4347100 0.0 10101200
14:00+17с676098 1.1 1012682
17:00+17ссв5651100 0.4 1012645
20:00+16в34475 0.4 101276
22 мая, вс
вс2223:00+12ю22625 0.0 101418
02:00+11юз226925 0.0 101318
05:00+10зюз12715 0.0 101310
08:00+15юз12525 0.0 1012396
11:00+21зсз24379 0.0 10091233
14:00+25св35255 0.0 10062348
17:00+26св442451 0.0 10042351
20:00+19св8134642 1.1 1007601